When you browse on this site, cookies collect data to enhance your experience and personalize the content and advertising you see.
Visit our Privacy Policy to learn more. By continuing to use the site, you agree to this use of cookies and data.

Stündliche Wetter Bolshie Kuliki

Heute, 23 September, Mittwoch

Zeit Temperatur Niederschläge Wind Luftdruck Luftfeuchtigkeit
00:00 +12°C° 0 mm 4 m/S 749 mmHg 79%
01:00 +12°C° 0 mm 4 m/S 750 mmHg 82%
02:00 +12°C° 0 mm 4 m/S 750 mmHg 85%
03:00 +11°C° 0 mm 4 m/S 750 mmHg 88%
04:00 +11°C° 0 mm 3 m/S 750 mmHg 90%
05:00 +10°C° 0 mm 3 m/S 750 mmHg 92%
06:00 +10°C° 0 mm 3 m/S 750 mmHg 94%
07:00 +11°C° 0 mm 3 m/S 751 mmHg 88%
08:00 +13°C° 0 mm 3 m/S 751 mmHg 82%
09:00 +14°C° 0 mm 3 m/S 751 mmHg 77%
10:00 +17°C° 0 mm 3 m/S 751 mmHg 68%
11:00 +19°C° 0 mm 3 m/S 751 mmHg 60%
12:00 +21°C° 0 mm 3 m/S 751 mmHg 52%
13:00 +21°C° 0 mm 3 m/S 751 mmHg 51%
14:00 +21°C° 0 mm 3 m/S 751 mmHg 49%
15:00 +22°C° 0 mm 3 m/S 751 mmHg 48%
16:00 +20°C° 0 mm 2 m/S 751 mmHg 54%
17:00 +19°C° 0 mm 2 m/S 751 mmHg 60%
18:00 +18°C° 0 mm 1 m/S 751 mmHg 67%
19:00 +18°C° 0 mm 1 m/S 751 mmHg 69%
20:00 +15°C° 0 mm 0 m/S 751 mmHg 72%
21:00 +14°C° 0 mm 0 m/S 752 mmHg 74%
22:00 +14°C° 0 mm 0 m/S 752 mmHg 76%
23:00 +14°C° 0 mm 1 m/S 752 mmHg 77%

Morgen, 24 September, Donnerstag

Zeit Temperatur Niederschläge Wind Luftdruck Luftfeuchtigkeit
00:00 +14°C° 0 mm 1 m/S 752 mmHg 79%
01:00 +14°C° 0 mm 1 m/S 752 mmHg 81%
02:00 +13°C° 0 mm 1 m/S 752 mmHg 83%
03:00 +13°C° 0 mm 1 m/S 753 mmHg 85%
04:00 +13°C° 0 mm 1 m/S 753 mmHg 86%
05:00 +12°C° 0 mm 1 m/S 753 mmHg 87%
06:00 +12°C° 0 mm 2 m/S 753 mmHg 88%
07:00 +14°C° 0 mm 2 m/S 753 mmHg 82%
08:00 +15°C° 0 mm 2 m/S 753 mmHg 75%
09:00 +17°C° 0 mm 2 m/S 753 mmHg 69%
10:00 +19°C° 0 mm 2 m/S 753 mmHg 63%
11:00 +20°C° 0 mm 2 m/S 753 mmHg 58%
12:00 +21°C° 0 mm 2 m/S 753 mmHg 52%
13:00 +23°C° 0 mm 2 m/S 753 mmHg 50%
14:00 +23°C° 0 mm 2 m/S 753 mmHg 48%
15:00 +24°C° 0 mm 2 m/S 753 mmHg 46%
16:00 +21°C° 0 mm 2 m/S 753 mmHg 51%
17:00 +20°C° 0 mm 2 m/S 753 mmHg 56%
18:00 +18°C° 0 mm 2 m/S 753 mmHg 61%
19:00 +17°C° 0 mm 2 m/S 753 mmHg 62%
20:00 +17°C° 0 mm 2 m/S 753 mmHg 63%
21:00 +16°C° 0 mm 2 m/S 753 mmHg 64%
22:00 +15°C° 0 mm 2 m/S 753 mmHg 65%
23:00 +15°C° 0 mm 2 m/S 753 mmHg 66%

übermorgen, 25 September, Freitag

Zeit Temperatur Niederschläge Wind Luftdruck Luftfeuchtigkeit
00:00 +14°C° 0 mm 2 m/S 753 mmHg 66%
01:00 +14°C° 0 mm 2 m/S 754 mmHg 69%
02:00 +13°C° 0 mm 2 m/S 754 mmHg 71%
03:00 +13°C° 0 mm 2 m/S 754 mmHg 73%
04:00 +12°C° 0 mm 2 m/S 754 mmHg 76%
05:00 +11°C° 0 mm 3 m/S 754 mmHg 78%
06:00 +11°C° 0 mm 3 m/S 754 mmHg 81%
07:00 +12°C° 0 mm 3 m/S 754 mmHg 76%
08:00 +14°C° 0 mm 3 m/S 754 mmHg 70%
09:00 +15°C° 0 mm 4 m/S 754 mmHg 65%
10:00 +18°C° 0 mm 4 m/S 754 mmHg 59%
11:00 +20°C° 0 mm 4 m/S 754 mmHg 53%
12:00 +21°C° 0 mm 4 m/S 754 mmHg 46%
13:00 +22°C° 0 mm 4 m/S 754 mmHg 45%
14:00 +22°C° 0 mm 4 m/S 754 mmHg 44%
15:00 +23°C° 0 mm 4 m/S 754 mmHg 43%
16:00 +21°C° 0 mm 4 m/S 754 mmHg 49%
17:00 +19°C° 0 mm 3 m/S 753 mmHg 54%
18:00 +17°C° 0 mm 3 m/S 753 mmHg 60%
19:00 +17°C° 0 mm 3 m/S 753 mmHg 60%
20:00 +16°C° 0 mm 3 m/S 754 mmHg 59%
21:00 +14°C° 0 mm 3 m/S 754 mmHg 59%
22:00 +13°C° 0 mm 3 m/S 754 mmHg 58%
23:00 +13°C° 0 mm 3 m/S 754 mmHg 56%

26 September, Samstag

Zeit Temperatur Niederschläge Wind Luftdruck Luftfeuchtigkeit
00:00 +12°C° 0 mm 3 m/S 754 mmHg 54%
01:00 +11°C° 0 mm 3 m/S 754 mmHg 55%
02:00 +11°C° 0 mm 3 m/S 754 mmHg 56%
03:00 +10°C° 0 mm 3 m/S 754 mmHg 57%
04:00 +10°C° 0 mm 3 m/S 754 mmHg 59%
05:00 +9°C° 0 mm 3 m/S 755 mmHg 60%
06:00 +9°C° 0 mm 3 m/S 755 mmHg 61%
07:00 +10°C° 0 mm 3 m/S 755 mmHg 58%
08:00 +12°C° 0 mm 3 m/S 755 mmHg 54%
09:00 +13°C° 0 mm 4 m/S 755 mmHg 51%
10:00 +15°C° 0 mm 4 m/S 755 mmHg 47%
11:00 +18°C° 0 mm 4 m/S 755 mmHg 43%
12:00 +20°C° 0 mm 4 m/S 755 mmHg 39%
13:00 +20°C° 0 mm 4 m/S 755 mmHg 39%
14:00 +21°C° 0 mm 4 m/S 755 mmHg 39%
15:00 +21°C° 0 mm 4 m/S 755 mmHg 39%
16:00 +20°C° 0 mm 4 m/S 754 mmHg 45%
17:00 +18°C° 0 mm 4 m/S 754 mmHg 51%
18:00 +17°C° 0 mm 3 m/S 754 mmHg 57%
19:00 +15°C° 0 mm 4 m/S 754 mmHg 58%
20:00 +15°C° 0 mm 4 m/S 755 mmHg 59%
21:00 +14°C° 0 mm 4 m/S 755 mmHg 60%
22:00 +14°C° 0 mm 4 m/S 755 mmHg 57%
23:00 +14°C° 0 mm 4 m/S 755 mmHg 55%

27 September, Sonntag

Zeit Temperatur Niederschläge Wind Luftdruck Luftfeuchtigkeit
00:00 +14°C° 0 mm 4 m/S 756 mmHg 53%
01:00 +13°C° 0 mm 4 m/S 756 mmHg 53%
02:00 +13°C° 0 mm 4 m/S 756 mmHg 53%
03:00 +12°C° 0 mm 4 m/S 756 mmHg 53%
04:00 +11°C° 0 mm 4 m/S 756 mmHg 54%
05:00 +11°C° 0 mm 4 m/S 757 mmHg 54%
06:00 +10°C° 0 mm 4 m/S 757 mmHg 55%
07:00 +11°C° 0 mm 4 m/S 757 mmHg 52%
08:00 +13°C° 0 mm 4 m/S 757 mmHg 49%
09:00 +14°C° 0 mm 5 m/S 758 mmHg 46%
10:00 +15°C° 0 mm 5 m/S 758 mmHg 42%
11:00 +17°C° 0 mm 6 m/S 758 mmHg 39%
12:00 +19°C° 0 mm 6 m/S 758 mmHg 35%
13:00 +19°C° 0 mm 6 m/S 757 mmHg 35%
14:00 +20°C° 0 mm 6 m/S 757 mmHg 34%
15:00 +20°C° 0 mm 6 m/S 757 mmHg 34%
16:00 +19°C° 0 mm 5 m/S 757 mmHg 38%
17:00 +17°C° 0 mm 4 m/S 757 mmHg 41%
18:00 +15°C° 0 mm 4 m/S 757 mmHg 45%
19:00 +14°C° 0 mm 4 m/S 757 mmHg 45%
20:00 +14°C° 0 mm 4 m/S 757 mmHg 45%
21:00 +13°C° 0 mm 4 m/S 757 mmHg 45%
22:00 +13°C° 0 mm 4 m/S 757 mmHg 45%
23:00 +12°C° 0 mm 4 m/S 757 mmHg 45%

28 September, Montag

Zeit Temperatur Niederschläge Wind Luftdruck Luftfeuchtigkeit
00:00 +12°C° 0 mm 4 m/S 758 mmHg 44%
01:00 +12°C° 0 mm 4 m/S 758 mmHg 46%
02:00 +11°C° 0 mm 4 m/S 758 mmHg 47%
03:00 +11°C° 0 mm 4 m/S 758 mmHg 48%
04:00 +11°C° 0 mm 4 m/S 758 mmHg 48%
05:00 +11°C° 0 mm 4 m/S 758 mmHg 48%
06:00 +9°C° 0 mm 5 m/S 758 mmHg 48%
07:00 +10°C° 0 mm 5 m/S 757 mmHg 47%
08:00 +11°C° 0 mm 6 m/S 757 mmHg 45%
09:00 +13°C° 0 mm 6 m/S 757 mmHg 43%
10:00 +14°C° 0 mm 7 m/S 757 mmHg 40%
11:00 +16°C° 0 mm 7 m/S 757 mmHg 37%
12:00 +17°C° 0 mm 7 m/S 757 mmHg 34%
13:00 +17°C° 0 mm 7 m/S 756 mmHg 33%
14:00 +18°C° 0 mm 7 m/S 756 mmHg 32%
15:00 +20°C° 0 mm 7 m/S 756 mmHg 30%
16:00 +19°C° 0 mm 6 m/S 755 mmHg 32%
17:00 +17°C° 0 mm 6 m/S 755 mmHg 34%
18:00 +16°C° 0 mm 5 m/S 755 mmHg 36%
19:00 +15°C° 0 mm 5 m/S 755 mmHg 35%
20:00 +15°C° 0 mm 5 m/S 755 mmHg 35%
21:00 +15°C° 0 mm 5 m/S 755 mmHg 35%
22:00 +15°C° 0 mm 5 m/S 755 mmHg 35%
23:00 +15°C° 0 mm 5 m/S 755 mmHg 35%
Mehr zeigen